Location: Le Moustier
(44.1000°N, 6.5167°E)
Time: 22:23:15
(UTC+00:00)

Helios 1A Rocket - Pass Details

Date: 13 December 2025
Orbit: 431 x 441 km, 98.3° (Epoch: 21 January)

Event Time Altitude Azimuth Distance (km) Brightness Sun altitude
Exits shadow 17:56:13 21° 164° (SSE) 1,064 4.2 -20.7°
Drops below altitude 10° 17:57:36 10° 175° (S) 1,593 5.2 -21.0°
Sets 17:59:41 0° 181° (S) 2,462 6.3 -21.3°
